Temperature
17 17 17 17 17 17 16 16 17 18 18 17 17 17 16 16 16 16 16 16 16 16 16 16 16 16 16 16 16 15 15 16 15 15 15 15 15 15
17 17 17 16 16 16 16 16 16 16 17 17 16 16 16 16 16 15 15 16 16 16 16 16 16 16 15 15 15 15 15 15 15 15 15 15 15 15
16 16 16 16 16 16 16 16 16 16 16 16 16 15 15 15 15 15 15 15 15 15 15 15 15 15 15 15 15 15 15 15 15 15 15 15 15 15
16 16 16 16 16 16 15 15 15 15 15 15 15 15 15 14 14 15 15 15 15 15 15 15 15 15 15 15 15 15 15 15 15 15 15 15 15 15
16 16 16 16 15 15 15 15 15 15 15 15 15 15 14 14 14 14 14 14 14 15 15 14 14 14 14 14 14 14 14 14 14 14 14 14 14 14
16 15 15 15 15 15 15 14 14 14 14 14 14 14 14 14 14 14 14 14 14 14 14 14 14 14 14 14 14 14 14 14 14 14 14 14 14 14
15 15 15 15 15 15 14 14 14 14 14 14 14 14 14 14 14 13 14 14 14 14 14 14 14 13 14 14 14 14 14 14 14 14 14 14 14 14
15 15 15 15 15 14 14 14 14 14 13 13 14 14 13 13 13 13 13 13 13 13 13 13 13 13 13 13 13 13 13 13 13 13 13 13 13 13
15 14 14 15 14 14 14 14 14 14 13 13 13 13 13 13 13 13 12 12 12 13 13 13 13 13 13 13 13 13 13 13 13 13 13 13 13 13
14 14 14 14 14 14 14 13 13 13 13 13 12 12 12 12 12 12 12 12 12 13 12 13 13 13 13 13 13 13 13 13 13 12 12 12 12 12
14 14 14 14 14 14 13 13 13 13 13 13 12 12 12 12 12 12 12 12 13 13 12 12 12 12 13 13 13 12 12 12 12 12 12 12 12 12
14 14 14 13 13 13 13 13 12 12 12 12 12 12 12 12 12 12 12 12 12 12 12 12 12 12 12 12 12 12 12 12 12 12 12 12 12 11
14 13 13 13 13 13 12 12 12 12 12 12 12 12 12 12 11 11 11 11 11 12 12 11 11 12 12 12 12 12 12 12 12 11 11 11 11 11
13 13 13 13 13 12 12 12 12 12 12 12 12 11 11 11 11 11 11 11 11 11 11 11 11 11 11 11 12 12 11 11 11 11 11 11 11 11
13 12 12 12 12 12 12 12 12 11 11 11 11 11 11 11 11 11 11 10 11 11 10 10 10 10 10 11 11 11 11 11 11 11 11 11 11 11
12 12 12 12 12 12 11 11 11 11 11 11 11 10 10 10 10 10 10 10 10 10 10 10 10 10 10 10 11 11 11 11 11 10 10 10 10 11
12 12 12 12 12 11 11 11 11 11 10 10 10 10 10 10 10 10 10 10 10 10 10 10 10 10 10 10 10 10 10 10 10 10 10 10 10 10
11 11 11 11 11 11 11 11 10 10 10 10 10 10 10 9 9 9 9 9 9 9 10 9 9 9 10 10 10 10 10 10 10 10 10 10 10 10
11 11 11 10 10 10 10 10 10 10 9 10 9 9 9 9 9 9 9 9 9 9 9 9 9 9 9 10 10 10 9 9 10 10 10 9 10 10
10 10 10 10 10 10 9 9 9 9 9 9 9 9 9 9 9 9 9 8 9 9 9 9 9 9 9 9 9 9 9 9 9 9 9 9 9 9
10 9 9 9 9 9 9 9 9 9 9 9 9 8 8 8 8 8 8 8 8 8 8 8 9 8 8 9 9 9 9 9 9 9 9 9 9 9
9 9 9 9 9 8 8 8 8 8 8 8 8 8 8 8 8 8 8 8 8 8 8 8 8 8 8 8 9 9 9 9 9 9 9 8 8 8
8 8 8 8 8 8 8 8 8 8 8 8 8 8 8 7 7 7 7 7 7 7 7 7 8 8 8 8 9 9 9 9 9 9 9 8 8 8
Wind_Speed
4 4 4 4 4 4 4 5 5 6 5 4 4 3 3 3 2 4 5 1 3 4 5 6 7 7 7 7 7 7 6 6 7 8 8 10 12 13
3 4 4 4 4 4 4 5 5 6 6 5 4 4 4 5 3 4 5 3 5 5 4 4 4 5 5 6 6 5 5 5 5 6 6 7 8 9
4 4 4 4 4 4 4 4 5 5 6 5 5 4 4 6 6 6 6 5 3 5 4 3 4 4 4 4 5 5 5 5 5 5 6 6 6 7
4 4 5 4 4 5 4 5 4 4 5 6 6 5 5 6 6 7 6 5 5 3 6 5 4 4 5 4 4 4 4 5 5 5 5 5 6 7
5 5 5 5 5 4 5 5 4 4 5 6 6 5 5 5 6 6 6 5 6 3 6 7 6 5 5 5 4 4 4 4 4 4 4 4 5 6
5 5 5 5 5 5 4 5 5 5 5 6 6 5 5 5 5 5 5 4 5 5 3 4 5 8 7 6 4 4 4 4 4 4 4 4 4 5
6 6 5 4 4 4 5 4 5 5 5 5 6 5 5 5 5 5 6 5 5 4 4 4 3 3 4 5 5 4 4 4 4 4 4 4 4 5
6 6 6 5 5 5 5 5 6 6 6 6 6 6 6 6 5 6 6 6 5 3 4 5 4 4 3 3 2 4 4 5 5 5 5 4 4 5
7 6 6 4 4 5 5 6 6 7 7 7 8 8 8 7 7 7 6 7 7 6 5 6 5 5 4 2 4 4 5 5 6 6 5 5 5 5
6 6 6 5 5 4 5 6 6 6 6 7 7 8 8 7 7 8 8 8 7 5 5 6 6 6 5 4 5 6 6 7 7 7 6 5 5 6
6 6 6 6 1 3 5 6 7 7 6 6 6 7 8 8 7 7 7 7 7 5 3 5 6 6 5 5 4 8 8 8 8 7 7 7 7 7
5 5 4 4 2 2 5 6 7 7 7 6 6 8 9 8 9 8 7 7 7 6 4 5 6 5 5 4 4 3 4 6 8 8 8 8 7 6
5 4 2 2 3 5 6 6 7 8 7 7 7 7 6 5 6 5 5 6 7 7 5 5 6 6 6 6 5 5 4 4 4 5 7 8 9 7
5 4 2 2 4 6 6 5 7 7 6 6 5 5 5 5 5 5 6 7 7 8 7 6 7 6 7 7 6 5 4 4 4 4 4 5 7 9
5 4 4 4 6 6 6 7 6 5 5 5 5 5 5 5 5 5 5 6 7 8 6 6 7 7 7 7 7 6 5 4 4 4 4 3 4 4
5 4 6 7 6 5 4 5 5 5 5 5 5 5 4 4 4 4 5 5 5 5 5 6 7 8 7 8 7 6 5 4 4 4 4 5 4 5
5 4 3 3 3 3 3 4 4 5 5 5 5 5 5 5 5 5 5 5 6 6 5 4 5 6 8 7 7 7 6 5 4 4 4 5 5 4
4 3 3 3 4 4 4 4 5 5 5 5 6 5 5 5 5 5 5 5 6 6 6 5 4 5 5 6 6 7 6 6 5 4 5 5 6 5
3 3 3 4 4 4 4 4 5 5 5 6 6 5 5 5 5 6 6 6 6 6 6 6 5 5 6 6 5 4 6 5 5 4 4 5 5 5
3 3 3 4 4 4 4 5 5 4 4 5 5 5 5 5 5 6 6 6 7 7 7 6 6 5 6 7 6 6 6 6 5 5 5 4 4 3
3 4 4 4 4 4 4 5 5 5 5 5 5 5 5 5 6 6 7 7 7 7 7 7 6 6 6 6 6 6 4 3 3 5 5 4 4 4
4 4 4 4 4 4 4 4 5 5 5 5 5 5 5 5 6 7 7 7 7 7 8 7 6 6 6 6 7 6 5 3 2 3 3 3 3 4
4 5 5 4 4 4 4 4 5 5 5 5 5 5 5 5 5 6 6 6 6 7 7 6 6 6 6 6 6 5 5 4 3 2 2 1 3 4
Wind_Direction
275 269 271 282 284 283 280 276 280 285 285 283 282 296 296 299 324 293 292 235 238 258 264 270 269 263 256 253 251 250 258 262 256 251 249 245 240 238
272 284 285 284 286 282 280 279 277 277 282 295 294 300 319 307 308 296 288 245 227 228 235 253 263 256 254 253 247 242 252 260 259 251 245 244 241 236
273 274 277 281 281 279 275 272 271 273 275 284 291 302 308 301 308 299 287 279 261 182 200 236 258 261 255 247 244 242 250 254 257 254 249 244 238 231
270 279 286 282 271 275 277 277 279 276 273 280 285 288 291 290 292 290 292 287 287 189 188 219 242 252 243 241 247 246 248 252 257 258 252 249 242 234
268 273 281 288 282 278 275 278 280 274 271 272 279 286 287 294 296 291 290 288 286 256 203 207 213 225 233 234 241 244 245 245 249 255 257 255 249 238
271 273 275 279 282 283 277 276 276 275 269 270 278 285 289 299 293 293 291 284 281 286 289 266 217 211 217 215 214 229 240 239 240 240 242 247 250 249
270 270 270 275 295 286 290 290 283 277 279 282 285 289 295 303 298 301 299 296 284 288 293 286 266 261 237 209 202 205 221 234 238 238 235 232 237 243
270 269 265 251 237 231 259 274 283 279 285 288 289 295 296 296 301 298 301 298 297 305 299 293 285 283 281 276 167 181 217 233 238 234 230 230 232 237
273 270 271 270 257 263 243 234 249 258 263 272 283 289 295 300 298 289 288 291 294 297 294 293 287 281 279 262 165 192 216 228 231 228 228 230 233 237
266 264 266 274 276 283 273 268 267 262 255 256 271 279 286 296 289 281 280 278 277 274 275 284 290 287 282 268 184 192 211 220 225 224 226 226 231 238
264 263 264 263 293 287 268 273 278 278 254 237 255 269 280 279 282 284 281 280 282 283 278 283 292 295 287 276 229 195 208 216 220 220 221 220 226 233
258 256 249 267 284 263 263 272 276 284 292 285 263 256 260 254 238 251 271 277 282 283 288 280 283 292 290 283 284 268 239 222 218 216 215 219 222 230
274 271 263 181 243 254 263 269 279 286 283 280 278 274 270 266 258 256 267 273 278 280 287 282 283 283 280 287 287 279 273 270 242 226 214 215 215 222
279 282 286 179 236 248 259 276 280 276 274 278 280 280 285 287 284 280 276 274 272 273 279 280 278 277 274 277 286 282 277 275 270 267 254 208 216 223
281 293 281 244 243 242 239 256 266 272 277 278 279 283 293 297 295 288 280 275 271 270 269 267 270 273 270 271 279 281 282 279 273 272 265 251 242 238
275 252 224 225 239 259 261 253 263 275 282 282 286 288 291 290 285 288 289 289 286 280 271 265 265 269 270 273 275 275 277 271 264 272 272 266 254 243
289 275 280 272 272 273 275 277 279 276 275 283 289 292 287 284 286 285 281 282 284 287 286 276 269 266 268 269 271 272 271 273 270 268 267 267 265 255
281 274 278 285 285 286 286 285 281 282 283 284 285 287 289 288 285 287 285 282 282 284 284 281 281 281 274 264 256 269 271 271 273 265 264 265 267 262
270 283 287 293 296 294 289 287 285 283 284 284 283 282 283 284 287 289 288 288 287 286 286 282 272 269 276 280 270 256 273 278 277 271 266 266 269 266
283 290 290 296 300 300 298 297 295 292 284 282 282 283 281 282 285 287 288 289 290 290 289 285 276 271 270 279 283 283 255 268 276 274 277 280 284 283
293 296 300 303 302 301 299 297 296 295 295 288 285 284 282 283 287 290 291 290 284 285 287 287 290 279 280 276 275 280 283 248 270 279 281 280 277 270
310 302 299 300 297 299 299 297 295 294 295 290 292 291 290 288 287 288 290 289 286 286 290 293 292 279 267 260 263 270 279 280 247 223 236 265 272 266
306 301 299 298 298 302 302 300 296 295 297 298 295 292 291 291 291 290 290 291 293 294 294 292 289 284 275 263 264 266 268 272 277 287 299 192 223 239
Height
1516 1515 1514 1514 1513 1512 1511 1511 1511 1508 1507 1507 1506 1505 1503 1502 1500 1499 1498 1496 1495 1494 1493 1493 1492 1491 1491 1490 1490 1490 1490 1490 1490 1490 1491 1491 1491 1492
1513 1512 1511 1511 1510 1509 1509 1508 1507 1506 1504 1504 1502 1502 1500 1500 1498 1496 1494 1493 1492 1491 1490 1489 1488 1487 1487 1486 1486 1486 1486 1486 1486 1486 1486 1487 1487 1488
1511 1510 1509 1508 1507 1507 1506 1505 1504 1503 1502 1501 1500 1499 1497 1495 1494 1493 1492 1490 1489 1488 1487 1486 1484 1484 1483 1483 1483 1483 1483 1483 1483 1483 1483 1483 1483 1483
1509 1508 1507 1506 1504 1504 1503 1502 1501 1500 1499 1497 1496 1496 1494 1492 1491 1489 1489 1488 1487 1485 1483 1482 1481 1480 1480 1480 1479 1479 1479 1479 1479 1479 1479 1479 1479 1479
1506 1505 1504 1503 1502 1501 1500 1499 1498 1497 1496 1495 1494 1492 1491 1490 1488 1487 1486 1484 1484 1483 1481 1480 1478 1477 1477 1476 1476 1476 1476 1476 1475 1475 1475 1475 1475 1475
1503 1502 1501 1500 1499 1498 1497 1496 1495 1494 1493 1492 1491 1490 1489 1487 1486 1485 1483 1482 1481 1480 1478 1477 1476 1475 1474 1473 1473 1472 1472 1472 1471 1471 1471 1471 1471 1471
1500 1499 1498 1497 1496 1496 1495 1494 1493 1492 1491 1490 1489 1487 1486 1485 1484 1482 1481 1479 1478 1477 1476 1475 1474 1472 1471 1470 1469 1469 1468 1468 1468 1467 1467 1467 1467 1467
1497 1496 1495 1494 1493 1492 1491 1490 1490 1489 1488 1487 1486 1485 1483 1482 1481 1480 1479 1477 1476 1475 1473 1472 1471 1470 1469 1468 1466 1465 1465 1464 1464 1463 1463 1463 1462 1463
1494 1493 1493 1492 1490 1489 1488 1487 1486 1485 1485 1484 1483 1482 1481 1479 1477 1476 1475 1474 1472 1471 1470 1469 1468 1467 1466 1464 1463 1462 1461 1460 1459 1459 1459 1458 1458 1458
1490 1489 1489 1488 1487 1485 1485 1484 1483 1482 1481 1480 1479 1478 1477 1475 1474 1473 1472 1470 1469 1468 1468 1466 1465 1464 1463 1461 1460 1459 1458 1457 1456 1455 1455 1455 1454 1455
1486 1486 1485 1484 1483 1482 1481 1480 1479 1478 1477 1476 1475 1473 1472 1471 1470 1470 1469 1468 1466 1466 1465 1463 1461 1461 1459 1458 1457 1456 1454 1453 1453 1452 1451 1451 1451 1451
1483 1482 1481 1480 1479 1478 1477 1477 1476 1475 1474 1473 1471 1469 1468 1467 1466 1466 1465 1464 1463 1462 1461 1460 1459 1458 1456 1455 1454 1453 1452 1451 1450 1449 1448 1448 1448 1448
1480 1479 1477 1476 1476 1475 1474 1473 1472 1471 1470 1469 1467 1466 1465 1464 1463 1462 1461 1460 1459 1458 1458 1457 1456 1455 1453 1452 1451 1450 1449 1448 1447 1446 1445 1445 1445 1444
1476 1475 1474 1473 1472 1472 1471 1469 1468 1467 1467 1466 1465 1463 1462 1461 1460 1458 1457 1456 1455 1454 1453 1453 1452 1451 1450 1449 1448 1447 1446 1445 1444 1443 1443 1442 1442 1441
1472 1471 1470 1469 1469 1468 1467 1466 1465 1464 1463 1463 1461 1460 1459 1457 1456 1454 1453 1452 1451 1450 1449 1448 1448 1447 1447 1446 1445 1444 1443 1442 1441 1440 1439 1439 1438 1438
1468 1467 1466 1466 1465 1465 1464 1463 1462 1462 1461 1460 1458 1457 1455 1454 1453 1451 1450 1449 1448 1447 1445 1444 1443 1443 1442 1442 1441 1440 1439 1439 1438 1437 1436 1435 1435 1434
1465 1464 1464 1463 1462 1461 1461 1460 1459 1459 1458 1456 1455 1454 1452 1451 1450 1449 1447 1446 1445 1443 1442 1441 1440 1439 1438 1438 1437 1436 1436 1435 1434 1433 1432 1432 1432 1431
1462 1462 1461 1460 1458 1458 1457 1456 1456 1455 1454 1453 1452 1450 1449 1447 1446 1445 1444 1443 1441 1440 1439 1438 1436 1435 1435 1434 1434 1433 1432 1431 1431 1430 1429 1428 1427 1427
1459 1459 1458 1457 1455 1454 1454 1453 1452 1452 1451 1450 1448 1447 1445 1444 1443 1442 1441 1439 1438 1437 1435 1434 1433 1432 1431 1430 1429 1429 1428 1427 1427 1426 1426 1425 1424 1423
1456 1455 1454 1454 1453 1452 1451 1450 1449 1448 1447 1446 1445 1443 1442 1441 1440 1439 1437 1436 1434 1433 1432 1431 1430 1429 1427 1427 1426 1425 1425 1424 1424 1423 1422 1422 1421 1420
1454 1453 1452 1451 1450 1449 1448 1447 1446 1445 1443 1442 1441 1439 1438 1437 1436 1435 1434 1432 1431 1429 1428 1427 1425 1425 1424 1424 1423 1422 1422 1421 1420 1419 1419 1418 1417 1416
1451 1450 1449 1448 1447 1446 1445 1443 1442 1441 1440 1439 1437 1436 1435 1433 1432 1431 1430 1428 1427 1425 1424 1423 1421 1421 1420 1420 1419 1418 1418 1418 1417 1416 1415 1415 1414 1413
1448 1447 1446 1446 1445 1443 1442 1440 1439 1438 1437 1435 1434 1433 1431 1430 1428 1427 1426 1424 1423 1421 1420 1419 1417 1417 1416 1416 1415 1415 1415 1414 1414 1413 1413 1412 1411 1410